TimeCDT,TemperatureF,Dew PointF,Humidity,Sea Level PressureIn,VisibilityMPH,Wind Direction,Wind SpeedMPH,Gust SpeedMPH,PrecipitationIn,Events,Conditions,WindDirDegrees,DateUTC
12:15 AM,64.4,60.8,88,30.00,10.0,North,8.1,-,N/A,,Clear,10,2013-09-02 05:15:00
12:35 AM,64.4,60.8,88,30.00,10.0,North,8.1,-,N/A,,Clear,10,2013-09-02 05:35:00
12:55 AM,64.4,60.8,88,30.00,-9999.0,North,8.1,-,N/A,,Clear,10,2013-09-02 05:55:00
1:15 AM,62.6,59.0,88,30.00,10.0,North,6.9,-,N/A,,Clear,10,2013-09-02 06:15:00
1:35 AM,62.6,59.0,88,30.01,10.0,North,8.1,-,N/A,,Clear,360,2013-09-02 06:35:00
1:55 AM,62.6,59.0,88,30.00,10.0,North,10.4,-,N/A,,Clear,10,2013-09-02 06:55:00
2:15 AM,62.6,59.0,88,30.01,10.0,North,10.4,-,N/A,,Clear,360,2013-09-02 07:15:00
2:35 AM,62.6,57.2,82,30.01,10.0,North,8.1,-,N/A,,Clear,360,2013-09-02 07:35:00
2:55 AM,60.8,57.2,88,30.01,10.0,North,8.1,-,N/A,,Clear,350,2013-09-02 07:55:00
3:15 AM,60.8,57.2,88,30.01,10.0,North,10.4,-,N/A,,Clear,360,2013-09-02 08:15:00
3:35 AM,59.0,57.2,94,30.01,10.0,North,9.2,-,N/A,,Clear,10,2013-09-02 08:35:00
3:55 AM,59.0,57.2,94,30.02,10.0,North,9.2,-,N/A,,Clear,360,2013-09-02 08:55:00
4:15 AM,59.0,57.2,94,30.02,10.0,North,9.2,-,N/A,,Clear,360,2013-09-02 09:15:00
4:35 AM,59.0,55.4,88,30.01,10.0,North,8.1,-,N/A,,Clear,360,2013-09-02 09:35:00
4:55 AM,59.0,55.4,88,30.02,10.0,North,6.9,-,N/A,,Clear,360,2013-09-02 09:55:00
5:15 AM,59.0,55.4,88,30.03,10.0,North,6.9,-,N/A,,Clear,350,2013-09-02 10:15:00
5:35 AM,57.2,55.4,94,30.03,10.0,North,8.1,-,N/A,,Clear,360,2013-09-02 10:35:00
5:55 AM,57.2,55.4,94,30.03,10.0,North,9.2,-,N/A,,Clear,360,2013-09-02 10:55:00
6:15 AM,57.2,55.4,94,30.03,10.0,North,9.2,-,N/A,,Clear,10,2013-09-02 11:15:00
6:35 AM,57.2,55.4,94,30.04,10.0,North,8.1,-,N/A,,Clear,360,2013-09-02 11:35:00
6:55 AM,57.2,55.4,94,30.05,10.0,North,9.2,-,N/A,,Clear,360,2013-09-02 11:55:00
7:15 AM,57.2,55.4,94,30.06,10.0,North,8.1,-,N/A,,Clear,360,2013-09-02 12:15:00
7:35 AM,57.2,55.4,94,30.06,10.0,North,6.9,-,N/A,,Clear,360,2013-09-02 12:35:00
7:55 AM,59.0,55.4,88,30.06,10.0,North,8.1,15.0,N/A,,Clear,360,2013-09-02 12:55:00
8:15 AM,59.0,55.4,88,30.07,10.0,North,10.4,-,N/A,,Clear,10,2013-09-02 13:15:00
8:35 AM,60.8,57.2,88,30.07,10.0,North,9.2,-,N/A,,Clear,10,2013-09-02 13:35:00
8:55 AM,60.8,57.2,88,30.07,10.0,North,9.2,-,N/A,,Clear,10,2013-09-02 13:55:00
9:15 AM,62.6,57.2,82,30.08,10.0,NNE,11.5,-,N/A,,Clear,20,2013-09-02 14:15:00
9:35 AM,64.4,57.2,77,30.08,10.0,NNE,10.4,-,N/A,,Clear,20,2013-09-02 14:35:00
9:55 AM,64.4,57.2,77,30.09,10.0,NNE,8.1,-,N/A,,Clear,20,2013-09-02 14:55:00
10:15 AM,66.2,57.2,73,30.09,10.0,North,9.2,-,N/A,,Clear,10,2013-09-02 15:15:00
10:35 AM,68.0,57.2,68,30.09,10.0,Variable,5.8,12.7,N/A,,Clear,0,2013-09-02 15:35:00
10:55 AM,68.0,57.2,68,30.09,10.0,NNE,9.2,-,N/A,,Partly Cloudy,30,2013-09-02 15:55:00
11:15 AM,69.8,57.2,64,30.09,10.0,North,9.2,-,N/A,,Partly Cloudy,350,2013-09-02 16:15:00
11:35 AM,69.8,57.2,64,30.09,10.0,NNW,10.4,-,N/A,,Clear,340,2013-09-02 16:35:00
11:55 AM,71.6,57.2,60,30.09,10.0,North,8.1,-,N/A,,Clear,350,2013-09-02 16:55:00
12:15 PM,71.6,57.2,60,30.09,10.0,North,9.2,-,N/A,,Clear,360,2013-09-02 17:15:00
12:35 PM,73.4,55.4,53,30.08,10.0,North,12.7,18.4,N/A,,Clear,360,2013-09-02 17:35:00
12:55 PM,73.4,55.4,53,30.08,10.0,NNE,9.2,-,N/A,,Clear,20,2013-09-02 17:55:00
1:15 PM,73.4,53.6,50,30.07,10.0,NNE,10.4,17.3,N/A,,Clear,20,2013-09-02 18:15:00
1:35 PM,75.2,55.4,50,30.06,10.0,North,8.1,15.0,N/A,,Clear,10,2013-09-02 18:35:00
1:55 PM,75.2,53.6,47,30.06,10.0,North,8.1,15.0,N/A,,Clear,10,2013-09-02 18:55:00
2:15 PM,77.0,51.8,41,30.06,10.0,NNW,12.7,-,N/A,,Clear,340,2013-09-02 19:15:00
2:35 PM,77.0,50.0,39,30.05,10.0,NNW,12.7,-,N/A,,Clear,340,2013-09-02 19:35:00
3:15 PM,77.0,51.8,41,30.04,10.0,NW,10.4,16.1,N/A,,Clear,310,2013-09-02 20:15:00
3:55 PM,78.8,50.0,36,30.03,10.0,NNE,8.1,15.0,N/A,,Clear,20,2013-09-02 20:55:00
4:15 PM,78.8,50.0,36,30.03,10.0,NW,8.1,-,N/A,,Clear,320,2013-09-02 21:15:00
4:35 PM,78.8,51.8,39,30.03,10.0,North,8.1,-,N/A,,Clear,10,2013-09-02 21:35:00
4:55 PM,77.0,51.8,41,30.03,10.0,North,8.1,-,N/A,,Clear,10,2013-09-02 21:55:00
5:15 PM,77.0,51.8,41,30.02,10.0,NNE,8.1,-,N/A,,Clear,20,2013-09-02 22:15:00
5:35 PM,77.0,50.0,39,30.03,10.0,North,9.2,-,N/A,,Clear,350,2013-09-02 22:35:00
5:55 PM,77.0,51.8,41,30.03,10.0,North,6.9,-,N/A,,Clear,350,2013-09-02 22:55:00
6:15 PM,77.0,51.8,41,30.02,10.0,North,8.1,-,N/A,,Clear,360,2013-09-02 23:15:00
6:35 PM,77.0,51.8,41,30.03,10.0,North,9.2,-,N/A,,Clear,360,2013-09-02 23:35:00
6:55 PM,75.2,51.8,44,30.03,10.0,North,4.6,-,N/A,,Clear,360,2013-09-02 23:55:00
7:15 PM,73.4,53.6,50,30.03,10.0,NNE,5.8,-,N/A,,Clear,20,2013-09-03 00:15:00
7:35 PM,71.6,53.6,53,30.03,10.0,NNE,5.8,-,N/A,,Clear,30,2013-09-03 00:35:00
7:55 PM,69.8,53.6,56,30.03,10.0,NNE,6.9,-,N/A,,Clear,30,2013-09-03 00:55:00
8:15 PM,68.0,51.8,56,30.03,10.0,NNE,6.9,-,N/A,,Clear,20,2013-09-03 01:15:00
8:35 PM,68.0,53.6,60,30.03,10.0,NNE,6.9,-,N/A,,Clear,30,2013-09-03 01:35:00
8:55 PM,66.2,53.6,64,30.03,10.0,NNE,6.9,-,N/A,,Clear,20,2013-09-03 01:55:00
9:15 PM,66.2,53.6,64,30.04,10.0,NNE,6.9,-,N/A,,Clear,30,2013-09-03 02:15:00
9:35 PM,64.4,53.6,68,30.05,10.0,North,4.6,-,N/A,,Clear,10,2013-09-03 02:35:00
9:55 PM,66.2,51.8,60,30.05,10.0,NNE,6.9,-,N/A,,Clear,20,2013-09-03 02:55:00
10:15 PM,64.4,51.8,64,30.05,10.0,NNE,5.8,-,N/A,,Clear,20,2013-09-03 03:15:00
10:35 PM,62.6,51.8,68,30.06,10.0,North,4.6,-,N/A,,Clear,10,2013-09-03 03:35:00
10:55 PM,60.8,51.8,72,30.06,10.0,North,3.5,-,N/A,,Clear,10,2013-09-03 03:55:00
11:15 PM,62.6,51.8,68,30.05,10.0,NNE,6.9,-,N/A,,Clear,30,2013-09-03 04:15:00
11:35 PM,62.6,51.8,68,30.06,10.0,NNE,6.9,-,N/A,,Clear,30,2013-09-03 04:35:00
11:55 PM,60.8,51.8,72,30.06,10.0,NNE,6.9,-,N/A,,Clear,30,2013-09-03 04:55:00